STARLINK-34339 (64160 NORAD) Tracking and Keplerian Element Data

This shows tracking and keplerian element data for the satellite.

Feedback or suggestion? Click here.




ElementValue
Catalog64160
NameSTARLINK-34339
Epoch Orbit3133
Epoch Day354.11270646
Epoch Year2025
RAAN43.0695
Inclination97.6024
Eccentricity0.0001072
Argument of Perigee97.2416
Mean Anonmoly262.8932
Mean Motion15.05651782
Decay Rate2.321E-05
L11 64160U 25112Q 25354.11270646 .00002321 00000+0 16503-3 0 9999
L22 64160 97.6024 43.0695 0001072 97.2416 262.8932 15.05651782 31335



Live tracking and technical data element details for STARLINK-34339 (NORAD 64160). STARLINK-34339 can be tracked NOW for your location showing map with azimuth and elevation plus other details from your city location.







IsCatalogInMostPopularTable: catalog: 64160, numindb: 4
Update: records affected: 1



GetName: 64160 STARLINK-34339

Hit Count: updated at: Sat, 07 Feb 2026 08:37:31 GMT